Location: �chenoz-la-M�line
(47.6009°N, 6.1354°E)
Time: 03:38:23
(UTC+00:00)

Cosmos 1400 Rocket - Pass Details

Date: 27 January 2021
Orbit: 520 x 568 km, 81.2° (Epoch: 27 February)

Event Time Altitude Azimuth Distance (km) Brightness Sun altitude
Exits shadow 04:53:29 47° 193° (SSW) 754 3.3 -22.6°
Maximum altitude 04:54:38 88° 284° (WNW) 575 2.7 -22.4°
Drops below altitude 10° 04:58:48 10° 11° (N) 1,880 5.6 -21.7°
Sets 05:01:00 0° 12° (NNE) 2,782 6.5 -21.3°
